Location: Newark
(38.6500°N, 6.7333°W)
Time: 00:41:16
(UTC+00:00)

Envisat - Visible Passes

Search period start: 20 October 2019 00:00
Search period end: 30 October 2019 00:00
Orbit: 764 x 766 km, 98.1° (Epoch: 19 October)

Date Brightness Start Highest point End Pass type
(mag) Time Alt. Az. Time Alt. Az. Time Alt. Az.
20 Oct 4.4 19:09:28 10° SSW 19:14:13 40° W 19:18:59 10° NNW visible
21 Oct 3.0 18:32:19 10° SSE 18:37:23 88° E 18:42:30 10° NNW visible
22 Oct 5.4 19:35:56 10° SW 19:39:52 23° W 19:43:50 10° NW visible
23 Oct 6.3 06:07:42 10° ENE 06:10:29 15° E 06:13:18 10° SE visible
23 Oct 3.9 18:57:59 10° S 19:02:55 51° W 19:07:52 10° NNW visible
24 Oct 2.9 18:21:07 10° SSE 18:26:09 69° ENE 18:31:13 10° N visible
24 Oct 6.1 20:03:36 10° WSW 20:05:38 12° W 20:07:41 10° WNW visible
25 Oct 5.0 19:24:10 10° SSW 19:28:32 29° W 19:32:55 10° NW visible
26 Oct 6.6 05:57:37 10° ENE 05:59:06 11° E 06:00:35 10° ESE visible
26 Oct 3.4 18:46:36 10° S 18:51:38 66° WSW 18:56:42 10° NNW visible
27 Oct 3.1 18:10:00 10° SSE 18:14:55 54° ENE 18:19:52 10° N visible
27 Oct 5.9 19:51:10 10° SW 19:54:14 16° W 19:57:20 10° NW visible
28 Oct 6.0 06:21:05 10° NE 06:24:53 21° E 06:28:39 10° SE visible
28 Oct 4.6 19:12:33 10° SSW 19:17:12 36° W 19:21:53 10° NNW visible
29 Oct 3.0 18:35:17 10° SSE 18:40:22 85° WSW 18:45:28 10° NNW visible
